Snowfall_Accumulation
0.0 0.0 0.0 0.0 0.0 0.0 0.0 0.0 0.0 0.0 0.0 0.0 0.0 0.0 0.0 0.0 0.0 0.0 0.0 0.0 0.0 9.6 2.2 0.0 0.0 0.4 0.0 0.2 4.2 2.1 5.3 5.3 6.6 10.3 8.6 3.4 3.1 0.0 0.0 0.0 0.0 0.0 0.9 2.7 2.9 6.1 4.2 0.0 0.0 0.0 0.0 0.0 0.0 0.0
0.0 0.0 0.0 0.0 0.0 0.0 0.0 0.0 0.0 0.0 0.0 0.0 0.0 0.0 0.0 0.0 0.0 0.0 0.0 0.0 0.0 0.0 1.9 0.0 0.0 0.0 0.0 0.0 0.0 4.6 5.1 1.0 2.7 6.3 5.5 4.9 6.8 4.5 1.0 1.0 0.0 0.0 0.0 0.1 0.5 0.3 0.0 0.0 0.0 0.0 0.0 0.0 0.0 0.0
0.0 0.0 0.0 0.0 0.0 0.0 0.0 0.0 0.0 0.0 0.0 0.0 0.0 0.0 0.0 0.0 0.0 0.0 0.0 0.0 0.0 4.2 3.0 0.6 0.0 0.0 0.0 0.0 0.0 7.4 10.1 2.1 4.0 2.2 6.3 8.7 10.0 4.5 3.6 2.7 0.2 0.0 0.0 0.5 0.0 0.8 0.2 0.0 0.1 0.1 0.2 0.0 0.2 0.1
0.0 0.0 0.0 0.0 0.0 0.0 0.0 0.0 0.0 0.0 0.0 0.0 0.0 0.0 0.0 0.0 0.0 0.0 0.0 0.0 0.0 4.8 9.3 2.2 0.0 0.0 0.0 0.0 0.0 0.0 0.0 0.6 2.8 4.2 13.8 15.2 11.8 4.6 3.5 0.6 0.5 0.5 0.9 1.4 2.2 0.7 0.4 0.6 0.0 0.0 1.4 2.6 2.3 1.6
0.0 0.0 0.0 0.0 0.0 0.0 0.0 0.0 0.0 0.0 0.0 0.0 0.0 0.0 0.0 0.0 0.0 0.0 0.0 0.0 0.0 3.5 8.4 3.1 0.2 0.0 0.0 0.0 0.1 0.2 0.8 2.9 6.6 8.0 10.5 8.6 3.3 3.9 5.9 4.9 5.0 1.1 0.5 1.2 2.6 0.4 2.1 2.4 1.5 2.0 2.1 2.5 2.4 0.9
0.0 0.0 0.0 0.0 0.0 0.0 0.0 0.0 0.0 0.0 0.0 0.0 0.0 0.0 0.0 0.0 0.0 0.0 3.9 0.0 0.0 0.0 7.8 5.9 0.2 0.0 0.0 0.0 0.1 0.2 0.6 1.4 4.1 6.9 6.8 4.9 1.9 2.4 6.1 4.7 0.5 0.0 0.0 0.4 1.2 1.5 2.1 1.6 1.5 1.2 1.3 1.1 0.9 0.5
0.0 0.0 0.0 0.0 0.0 0.0 0.0 0.0 0.0 0.0 0.0 0.0 0.0 0.0 0.0 0.0 0.0 5.0 4.6 1.1 0.0 0.0 14.2 13.9 6.9 0.7 0.3 0.2 0.2 0.3 0.6 1.4 2.7 3.7 5.9 2.5 2.3 2.6 5.4 3.1 0.6 0.5 0.5 1.4 1.8 1.8 1.6 1.1 1.3 1.1 0.6 0.8 0.7 0.5
0.0 0.0 0.0 0.0 0.0 0.0 0.0 0.0 0.0 0.0 0.0 0.0 0.0 0.0 0.0 0.0 0.0 1.4 0.0 0.0 0.0 8.0 13.4 13.1 5.0 1.0 1.4 0.8 0.5 0.5 1.6 2.3 4.4 3.3 2.4 1.8 1.9 2.6 4.9 1.1 0.8 0.2 0.9 1.7 1.5 1.2 1.3 0.9 0.6 0.7 0.5 0.4 0.3 0.3
0.0 0.0 0.0 0.0 0.0 0.0 0.0 0.0 0.0 0.0 0.0 0.0 0.0 0.0 0.0 0.5 0.5 0.0 0.0 0.0 0.7 5.3 7.9 5.0 2.1 1.5 1.1 0.8 1.3 0.7 0.9 2.2 1.9 1.5 0.3 0.7 2.6 2.1 0.9 0.2 0.1 0.1 0.5 0.6 0.9 0.7 0.6 0.4 0.5 0.5 0.3 0.3 0.2 0.2
0.0 0.0 0.0 0.0 0.0 0.0 0.0 0.0 0.0 0.0 0.0 0.0 0.8 0.9 1.2 0.6 0.0 0.0 0.8 1.2 2.8 4.6 4.8 2.5 0.4 0.7 0.0 0.0 0.5 0.5 1.3 1.3 1.2 0.5 0.4 0.9 1.1 0.6 0.3 0.2 0.1 0.4 1.0 0.9 0.6 0.4 0.4 0.4 0.2 0.3 0.2 0.2 0.1 0.0
0.0 0.0 0.0 0.0 0.0 0.0 0.0 0.0 0.0 0.0 0.0 1.4 1.6 0.5 0.7 0.0 0.7 2.2 2.4 3.1 3.6 3.8 2.1 1.3 0.9 0.9 1.0 1.2 1.5 2.1 2.2 1.6 1.8 0.3 0.1 0.7 0.3 0.0 0.0 0.0 0.4 0.6 0.5 0.4 0.3 0.2 0.2 0.0 0.1 0.0 0.1 0.1 0.0 0.0
0.0 0.0 0.0 0.0 0.0 0.0 0.0 0.0 0.0 0.9 1.2 1.3 1.8 1.1 0.6 1.3 2.1 2.0 3.0 1.6 1.3 1.6 1.2 0.7 1.1 1.8 2.4 2.7 3.5 3.8 2.9 2.7 1.9 0.7 0.9 0.7 0.2 0.0 0.0 0.1 0.3 0.3 0.2 0.0 0.1 0.0 0.0 0.0 0.1 0.1 0.1 0.1 0.0 0.0
0.0 0.0 0.0 0.1 0.2 0.0 0.0 0.0 0.0 0.0 0.0 2.3 2.8 2.5 0.8 1.6 2.1 2.1 1.1 1.0 1.8 2.0 1.9 2.2 2.0 1.9 1.5 2.2 2.7 2.3 2.1 1.5 0.5 1.0 0.7 0.3 0.0 0.0 0.2 0.1 0.1 0.0 0.0 0.0 0.0 0.0 0.0 0.0 0.0 0.0 0.0 0.0 0.0 0.0
0.0 0.0 0.0 0.1 0.1 0.0 0.0 0.0 0.0 0.0 3.0 2.1 1.7 1.3 0.5 1.0 1.0 1.0 1.1 1.2 1.3 1.8 1.8 1.5 1.2 1.4 1.3 2.1 2.2 2.1 1.7 1.1 1.2 0.6 0.4 0.1 0.1 0.2 0.1 0.1 0.0 0.0 0.0 0.0 0.0 0.0 0.0 0.0 0.0 0.0 0.0 0.0 0.0 0.0
0.0 0.0 0.1 0.0 0.1 0.1 0.0 0.3 0.9 1.7 4.3 3.5 2.0 1.6 0.9 0.6 0.6 0.8 0.9 0.9 0.9 0.6 0.6 0.4 0.7 0.9 0.9 1.7 1.6 1.7 1.7 1.4 1.0 0.6 0.1 0.0 0.0 0.0 0.0 0.0 0.0 0.0 0.0 0.0 0.0 0.0 0.0 0.0 0.0 0.0 0.0 0.0 0.0 0.0
0.0 0.0 0.5 0.0 0.0 0.0 0.0 0.0 0.1 0.3 0.0 1.0 0.7 1.0 0.3 0.5 0.3 0.3 0.7 0.4 0.5 0.5 0.5 1.0 1.0 1.2 1.4 1.5 1.6 1.5 1.5 1.2 0.4 0.1 0.0 0.0 0.0 0.0 0.0 0.0 0.0 0.0 0.0 0.0 0.0 0.0 0.0 0.0 0.0 0.0 0.0 0.0 0.0 0.0
0.0 1.2 0.4 0.2 0.1 0.0 0.0 0.3 0.4 0.0 0.0 0.0 0.0 0.0 0.3 0.1 0.1 0.1 0.2 0.2 0.3 0.4 0.6 0.7 0.8 0.8 0.8 0.9 0.8 0.2 0.3 0.2 0.1 0.0 0.0 0.0 0.0 0.0 0.0 0.0 0.0 0.0 0.0 0.0 0.0 0.0 0.0 0.0 0.0 0.0 0.0 0.0 0.0 0.0
0.7 1.4 0.6 0.3 0.3 0.0 0.0 0.0 0.0 0.0 0.0 0.1 0.0 0.1 0.1 0.2 0.1 0.2 0.3 0.3 0.3 0.3 0.3 0.2 0.1 0.1 0.0 0.1 0.0 0.0 0.0 0.0 0.0 0.0 0.0 0.0 0.0 0.0 0.0 0.0 0.0 0.0 0.0 0.0 0.0 0.0 0.0 0.0 0.0 0.0 0.0 0.0 0.0 0.0
0.3 0.6 0.4 0.0 0.0 0.0 0.0 0.0 0.0 0.1 0.3 0.2 0.1 0.1 0.1 0.1 0.3 0.4 0.3 0.2 0.1 0.0 0.0 0.0 0.0 0.0 0.0 0.0 0.2 0.0 0.0 0.0 0.1 0.0 0.0 0.0 0.0 0.0 0.0 0.0 0.0 0.0 0.0 0.0 0.0 0.0 0.0 0.0 0.0 0.0 0.0 0.0 0.0 0.0
0.0 0.0 0.0 0.0 0.0 0.0 0.0 0.0 0.0 0.0 0.0 0.1 0.1 0.2 0.1 0.1 0.1 0.0 0.0 0.0 0.0 0.0 0.0 0.0 0.1 0.2 0.4 0.1 0.2 0.2 0.0 0.0 0.2 0.1 0.0 0.0 0.0 0.0 0.0 0.0 0.0 0.0 0.0 0.0 0.0 0.1 0.0 0.0 0.0 0.0 0.0 0.0 0.0 0.0
0.0 0.0 0.0 0.0 0.0 0.0 0.0 0.0 0.0 0.0 0.0 0.1 0.1 0.0 0.0 0.0 0.0 0.0 0.0 0.0 0.0 0.0 0.0 0.0 0.0 0.0 0.0 0.0 0.0 0.1 0.1 0.1 0.2 0.3 0.2 0.2 0.2 0.1 0.1 0.0 0.1 0.0 0.1 0.0 0.0 0.0 0.1 0.0 0.0 0.0 0.0 0.0 0.0 0.0
0.0 0.0 0.0 0.0 0.0 0.0 0.0 0.0 0.0 0.0 0.0 0.0 0.0 0.0 0.0 0.0 0.0 0.0 0.0 0.0 0.0 0.1 0.1 0.0 0.0 0.0 0.0 0.0 0.0 0.0 0.1 0.1 0.0 0.1 0.1 0.4 0.1 0.0 0.0 0.1 0.2 0.1 0.1 0.1 0.1 0.0 0.0 0.0 0.0 0.0 0.0 0.0 0.0 0.0
0.0 0.0 0.0 0.0 0.0 0.0 0.0 0.0 0.0 0.0 0.0 0.0 0.0 0.0 0.0 0.0 0.0 0.0 0.0 0.0 0.0 0.0 0.0 0.0 0.0 0.0 0.0 0.0 0.0 0.0 0.0 0.0 0.1 0.1 0.1 0.1 0.1 0.2 0.2 0.0 0.1 0.2 0.1 0.0 0.2 0.1 0.1 0.2 0.2 0.2 0.0 0.0 0.0 0.0
0.0 0.0 0.0 0.0 0.0 0.0 0.0 0.0 0.0 0.0 0.0 0.0 0.0 0.0 0.0 0.0 0.0 0.0 0.0 0.0 0.0 0.0 0.0 0.0 0.0 0.0 0.0 0.0 0.0 0.0 0.0 0.0 0.0 0.1 0.2 0.2 0.1 0.1 0.2 0.2 0.2 0.2 0.3 0.3 0.3 0.2 0.2 0.2 0.2 0.2 0.1 0.1 0.1 0.0
0.0 0.0 0.0 0.0 0.0 0.0 0.0 0.0 0.0 0.0 0.0 0.0 0.0 0.0 0.0 0.0 0.0 0.0 0.0 0.0 0.0 0.0 0.0 0.0 0.0 0.0 0.0 0.0 0.0 0.0 0.0 0.1 0.2 0.2 0.2 0.3 0.3 0.0 0.0 0.1 0.1 0.2 0.4 0.4 0.2 0.3 0.2 0.3 0.2 0.1 0.1 0.2 0.1 0.1
0.0 0.0 0.0 0.0 0.0 0.0 0.0 0.0 0.0 0.0 0.0 0.0 0.0 0.0 0.0 0.0 0.0 0.0 0.1 0.0 0.0 0.1 0.1 0.2 0.2 0.1 0.0 0.0 0.1 0.1 0.1 0.1 0.2 0.1 0.2 0.4 0.4 0.5 0.3 0.2 0.2 0.1 0.5 0.3 0.3 0.3 0.3 0.3 0.2 0.2 0.1 0.1 0.5 0.7
0.0 0.0 0.0 0.0 0.0 0.0 0.0 0.0 0.0 0.0 0.0 0.0 0.0 0.0 0.0 0.0 0.1 0.0 0.0 0.1 0.1 0.0 0.1 0.0 0.1 0.2 0.1 0.0 0.0 0.0 0.0 0.1 0.2 0.3 0.3 0.3 0.4 0.5 0.5 0.6 0.4 0.3 0.9 0.4 0.2 0.3 0.3 0.3 0.2 0.2 0.2 0.1 0.0 0.1
0.0 0.0 0.0 0.0 0.0 0.0 0.0 0.0 0.0 0.0 0.0 0.0 0.0 0.0 0.0 0.1 0.2 0.1 0.0 0.1 0.0 0.0 0.0 0.0 0.0 0.0 0.0 0.0 0.0 0.0 0.0 0.0 0.0 0.1 0.1 0.2 0.2 0.3 0.2 0.4 0.4 0.9 0.9 0.3 0.4 0.3 0.3 0.2 0.3 0.2 0.2 0.1 0.1 0.0
0.0 0.0 0.0 0.0 0.0 0.0 0.0 0.0 0.0 0.0 0.0 0.0 0.0 0.0 0.0 0.0 0.0 0.0 0.0 0.0 0.0 0.0 0.0 0.0 0.0 0.0 0.0 0.0 0.0 0.0 0.0 0.1 0.1 0.0 0.1 0.2 0.2 0.2 0.2 0.3 0.4 0.3 0.3 0.3 0.5 1.1 0.4 0.5 0.2 0.3 0.4 0.2 0.1 0.0
0.0 0.0 0.0 0.0 0.0 0.0 0.0 0.0 0.0 0.0 0.0 0.0 0.0 0.0 0.0 0.0 0.0 0.0 0.0 0.0 0.0 0.0 0.0 0.0 0.0 0.0 0.0 0.0 0.0 0.0 0.0 0.2 0.4 0.7 0.8 0.3 0.6 0.3 0.5 0.4 0.3 0.2 0.2 0.3 0.3 0.4 1.1 2.4 2.0 1.6 0.7 0.5 0.3 0.2
0.0 0.0 0.0 0.0 0.0 0.0 0.0 0.0 0.0 0.0 0.0 0.0 0.0 0.0 0.0 0.0 0.0 0.0 0.0 0.0 0.0 0.0 0.0 0.0 0.0 0.0 0.0 0.0 0.1 0.3 0.1 0.0 0.3 0.3 0.3 1.0 0.6 0.7 0.7 0.4 0.2 0.4 0.3 0.4 0.4 0.4 0.4 0.6 1.0 0.9 0.3 0.2 0.3 0.3
0.0 0.0 0.0 0.0 0.0 0.0 0.0 0.0 0.0 0.0 0.0 0.0 0.0 0.0 0.0 0.0 0.0 0.0 0.1 0.0 0.0 0.0 0.0 0.0 0.0 0.0 0.0 0.0 0.0 0.1 0.9 0.3 0.1 0.7 1.3 2.4 2.2 1.9 1.4 0.2 0.3 0.4 0.3 0.4 0.4 0.5 0.6 0.6 0.8 0.8 0.4 0.3 0.3 0.3
0.0 0.0 0.0 0.0 0.0 0.0 0.0 0.0 0.0 0.0 0.0 0.0 0.0 0.0 0.0 0.0 0.0 0.0 0.2 0.3 0.1 0.1 0.1 0.0 0.0 0.0 0.0 0.0 0.0 0.0 0.2 0.1 0.4 1.0 1.8 2.0 2.3 2.4 1.2 0.5 0.6 0.3 0.3 0.4 0.5 0.6 0.7 0.7 0.6 0.7 0.6 0.4 0.4 0.3